Weather WX

World > North America > United States > Minnesota

Virginia, Minnesota Regional Weather

Lat: 47.52N, Lon: 92.51W
Wx Zone: MNZ019
Feedback

Virginia, MN Regional Weather

Expires:201906260800;;092172
ASUS43 KMPX 260710
RWRMN 
WEATHER ROUNDUP FOR MINNESOTA
NATIONAL WEATHER SERVICE TWIN CITIES/CHANHASSEN MN
200 AM CDT WED JUN 26 2019


NOTE: "FAIR" INDICATES FEW OR NO CLOUDS BELOW 12,000 FEET WITH NO
SIGNIFICANT WEATHER AND/OR OBSTRUCTIONS TO VISIBILITY. N/A MEANS
CURRENT SKY AND/OR WEATHER CONDITIONS ARE NOT AVAILABLE.


MNZ012-019>021-037-260800-
   Northeast Minnesota   
  
CITY           SKY/WX    TMP DP  RH WIND       PRES   REMARKS
DULUTH         FAIR      59  53  80 W10       29.85R                  
ELY            FAIR      59  55  88 SW6       29.80R                  
HIBBING        FAIR      48  48 100 CALM      29.83S                  
EVELETH        FAIR      55  54  94 W3        29.85R                  
DULUTH HARBOR  CLOUDY    61  50  67 SW9       29.84R                  
TWO HARBORS    FAIR      61  54  77 W8        29.82R                  
SILVER BAY     FAIR      57  55  94 CALM      29.80R                  
GRAND MARAIS     N/A     47  46  97 W6        29.76R                  
G MARAIS ARPRT FAIR      59  54  82 W7        29.77R                  
$$

SKY/WX - Weather  TMP - Temperature  DP - Dew Point  RH - Relative Humidity
WIND - Wind Direction/Speed PRES - Barometric Pressure VSB - Visibility
WCI - Wind Chill Index E13G22 Wind - East Wind 13 mph/Gusts of 22 mph